Match

Game Id Candidate Color Result Finished User Time
232306 white win true Insertcleverphrasehere 2018-05-06 17:18:53.875303 -0400 EDT
232307 black draw true Insertcleverphrasehere 2018-05-06 17:18:54.230036 -0400 EDT
232308 white draw true otto 2018-05-06 17:18:54.71892 -0400 EDT
232309 black draw true grondilu 2018-05-06 17:18:55.194036 -0400 EDT
232310 white draw true dacebonearm 2018-05-06 17:18:55.211073 -0400 EDT
232311 black loss true dss 2018-05-06 17:18:57.157277 -0400 EDT
232312 white draw true dss 2018-05-06 17:18:57.339179 -0400 EDT
232313 black draw true mattwhilden 2018-05-06 17:18:58.038845 -0400 EDT
232314 white draw true ianh2105 2018-05-06 17:18:58.607174 -0400 EDT
232315 black draw true Temp 2018-05-06 17:18:59.971769 -0400 EDT
232316 white draw true mcardillo55 2018-05-06 17:19:00.295658 -0400 EDT
232317 black loss true quixote 2018-05-06 17:19:00.775091 -0400 EDT
232318 white draw true FrancoisPays 2018-05-06 17:19:01.018115 -0400 EDT
232319 black draw true RageAlone 2018-05-06 17:19:02.230071 -0400 EDT
232320 white win true kwen 2018-05-06 17:19:02.588936 -0400 EDT
232321 black draw true win-gpu-4inst 2018-05-06 17:19:03.097828 -0400 EDT
232322 white loss true jorditg 2018-05-06 17:19:03.899102 -0400 EDT
232323 black - false RageAlone 2018-05-06 17:19:04.440631 -0400 EDT
232324 white draw true sillaw 2018-05-06 17:19:05.256955 -0400 EDT
232325 black draw true Liconn 2018-05-06 17:19:05.74701 -0400 EDT
232326 white win true ianh2105 2018-05-06 17:19:05.792 -0400 EDT
232327 black loss true blargsoup 2018-05-06 17:19:05.823492 -0400 EDT
232328 white draw true mk314 2018-05-06 17:19:06.250801 -0400 EDT
232329 black win true j33. 2018-05-06 17:19:06.468005 -0400 EDT
232330 white draw true ianh2105 2018-05-06 17:19:06.695713 -0400 EDT
232331 black draw true ppzhupapa 2018-05-06 17:19:07.670974 -0400 EDT
232332 white draw true gusti44 2018-05-06 17:19:07.861214 -0400 EDT
232333 black loss true emurphyt 2018-05-06 17:19:07.89896 -0400 EDT
232334 white draw true ImmoHell 2018-05-06 17:19:08.441126 -0400 EDT
232335 black loss true mfarrill 2018-05-06 17:19:09.093995 -0400 EDT
232336 white loss true jason2 2018-05-06 17:19:09.643333 -0400 EDT
232337 black loss true GaryS 2018-05-06 17:19:09.779792 -0400 EDT
232338 white loss true Flavius 2018-05-06 17:19:09.828107 -0400 EDT
232339 black loss true Slushman 2018-05-06 17:19:09.98388 -0400 EDT
232340 white draw true mattchess 2018-05-06 17:19:10.777043 -0400 EDT
232341 black draw true mkh 2018-05-06 17:19:11.578604 -0400 EDT
232342 white draw true rulamann_new 2018-05-06 17:19:11.881653 -0400 EDT
232343 black draw true NoonKnight 2018-05-06 17:19:12.211557 -0400 EDT
232344 white - false FrancoisPays 2018-05-06 17:19:12.537675 -0400 EDT
232345 black loss true mistermister 2018-05-06 17:19:12.647477 -0400 EDT
232346 white loss true mistermister 2018-05-06 17:19:13.000132 -0400 EDT
232347 black loss true Galaga 2018-05-06 17:19:13.540605 -0400 EDT
232348 white draw true amjsh 2018-05-06 17:19:13.60092 -0400 EDT
232349 black loss true Bidiroc 2018-05-06 17:19:14.658722 -0400 EDT
232350 white draw true Masterplan 2018-05-06 17:19:15.780655 -0400 EDT
232351 black loss true https://youtu.be/Nb1VOQRs-Vs 2018-05-06 17:19:15.88981 -0400 EDT
232352 white draw true RICHARDTHULSTRUP 2018-05-06 17:19:16.020332 -0400 EDT
232353 black draw true blin00 2018-05-06 17:19:16.747447 -0400 EDT
232354 white draw true Maratka 2018-05-06 17:19:18.153076 -0400 EDT
232355 black - false blin00 2018-05-06 17:19:18.518551 -0400 EDT
232356 white draw true amannedelk 2018-05-06 17:19:18.542003 -0400 EDT
232357 black loss true Google Colab 2018-05-06 17:19:18.816776 -0400 EDT
232358 white win true TinkTarkCarpentenk 2018-05-06 17:19:19.004552 -0400 EDT
232359 black draw true dew 2018-05-06 17:19:19.436248 -0400 EDT
232360 white loss true kk2796 2018-05-06 17:19:19.482491 -0400 EDT
232361 black win true pedrox 2018-05-06 17:19:20.737958 -0400 EDT
232362 white - false teddybaer 2018-05-06 17:19:20.781854 -0400 EDT
232363 black draw true Wonko42 2018-05-06 17:19:20.871248 -0400 EDT
232364 white - false j33. 2018-05-06 17:19:21.105607 -0400 EDT
232365 black win true Henchman47 2018-05-06 17:19:22.799684 -0400 EDT
232366 white loss true hal9000 2018-05-06 17:19:23.977044 -0400 EDT
232367 black draw true syjytg 2018-05-06 17:19:24.553671 -0400 EDT
232368 white draw true Siele 2018-05-06 17:19:24.700824 -0400 EDT
232369 black win true intochess 2018-05-06 17:19:24.973904 -0400 EDT
232370 white - false some1 2018-05-06 17:19:25.188293 -0400 EDT
232371 black - false mistermister 2018-05-06 17:19:26.222215 -0400 EDT
232372 white draw true dmir 2018-05-06 17:19:26.676475 -0400 EDT
232373 black draw true dmir 2018-05-06 17:19:27.187945 -0400 EDT
232374 white draw true mikael-s-persson 2018-05-06 17:19:27.425534 -0400 EDT
232375 black draw true bbghost 2018-05-06 17:19:29.48849 -0400 EDT
232376 white win true RageAlone 2018-05-06 17:19:29.530313 -0400 EDT
232377 black draw true shwartz01 2018-05-06 17:19:30.26881 -0400 EDT
232378 white draw true ianh2105 2018-05-06 17:19:30.344646 -0400 EDT
232379 black draw true RonMcChess 2018-05-06 17:19:30.980117 -0400 EDT
232380 white loss true ElmoH59 2018-05-06 17:19:31.526574 -0400 EDT
232381 black - false nevermind314 2018-05-06 17:19:31.701704 -0400 EDT
232382 white draw true ianh2105 2018-05-06 17:19:32.098811 -0400 EDT
232383 black draw true dmir 2018-05-06 17:19:32.601236 -0400 EDT
232384 white win true mjlitola 2018-05-06 17:19:32.907452 -0400 EDT
232385 black draw true landryb 2018-05-06 17:19:33.175035 -0400 EDT
232386 white win true dedmonds 2018-05-06 17:19:34.630733 -0400 EDT
232387 black loss true amicic 2018-05-06 17:19:34.948288 -0400 EDT
232388 white loss true Phibrizo 2018-05-06 17:19:35.670543 -0400 EDT
232389 black draw true just_stevo 2018-05-06 17:19:35.759206 -0400 EDT
232390 white - false RICHARDTHULSTRUP 2018-05-06 17:19:35.824207 -0400 EDT
232391 black win true ezpz 2018-05-06 17:19:36.107337 -0400 EDT
232392 white draw true grondilu 2018-05-06 17:19:36.191981 -0400 EDT
232393 black loss true TCECfan 2018-05-06 17:19:36.195208 -0400 EDT
232394 white draw true bmac 2018-05-06 17:19:36.372184 -0400 EDT
232395 black draw true hanan 2018-05-06 17:19:36.457311 -0400 EDT
232396 white loss true mataje 2018-05-06 17:19:36.505551 -0400 EDT
232397 black win true dss 2018-05-06 17:19:36.707838 -0400 EDT
232398 white - false jason2 2018-05-06 17:19:37.005697 -0400 EDT
232399 black loss true mfarrill 2018-05-06 17:19:37.191831 -0400 EDT
232400 white win true alonamaloh 2018-05-06 17:19:37.329927 -0400 EDT
232401 black loss true rlchess 2018-05-06 17:19:37.437915 -0400 EDT
232402 white loss true RageAlone 2018-05-06 17:19:37.680783 -0400 EDT
232403 black loss true Redtarga 2018-05-06 17:19:37.700058 -0400 EDT
232404 white draw true emurphyt 2018-05-06 17:19:38.320042 -0400 EDT
232405 black loss true domi 2018-05-06 17:19:38.554791 -0400 EDT
232406 white draw true dendrobate 2018-05-06 17:19:38.79403 -0400 EDT
232407 black draw true mschmidt 2018-05-06 17:19:38.964477 -0400 EDT
232408 white draw true Temp 2018-05-06 17:19:39.226645 -0400 EDT
232409 black draw true blin00 2018-05-06 17:19:39.268714 -0400 EDT
232410 white win true Temp 2018-05-06 17:19:39.442567 -0400 EDT
232411 black loss true absmachine 2018-05-06 17:19:39.643928 -0400 EDT
232412 white draw true rosariiio18 2018-05-06 17:19:40.106017 -0400 EDT
232413 black loss true Temp 2018-05-06 17:19:41.336269 -0400 EDT
232414 white draw true ianh2105 2018-05-06 17:19:43.985534 -0400 EDT
232415 black loss true Taras 2018-05-06 17:19:44.116437 -0400 EDT
232416 white - false chuckpaulson 2018-05-06 17:19:44.136408 -0400 EDT
232417 black - false hal9000 2018-05-06 17:19:44.44784 -0400 EDT
232418 white loss true rybot 2018-05-06 17:19:45.838458 -0400 EDT
232419 black draw true y_Sensei 2018-05-06 17:19:46.306928 -0400 EDT
232420 white draw true akseli1729 2018-05-06 17:19:46.321251 -0400 EDT
232421 black loss true rachelhikes 2018-05-06 17:19:46.646232 -0400 EDT
232422 white win true mkh 2018-05-06 17:19:46.770599 -0400 EDT
232423 black loss true enricocaruso 2018-05-06 17:19:46.822514 -0400 EDT
232424 white loss true brad 2018-05-06 17:19:47.2702 -0400 EDT
232425 black - false bmac 2018-05-06 17:19:47.637306 -0400 EDT
232426 white draw true [email protected] 2018-05-06 17:19:47.690086 -0400 EDT
232427 black draw true rebootl 2018-05-06 17:19:48.117608 -0400 EDT
232428 white draw true Google Colab 2018-05-06 17:19:48.243411 -0400 EDT
232429 black win true Chakravartim 2018-05-06 17:19:48.440578 -0400 EDT
232430 white draw true gth 2018-05-06 17:19:48.503604 -0400 EDT
232431 black loss true nepser 2018-05-06 17:19:48.644401 -0400 EDT
232432 white loss true teck45 2018-05-06 17:19:49.780437 -0400 EDT
232433 black - false Serjpinski 2018-05-06 17:19:49.844602 -0400 EDT
232434 white loss true dready 2018-05-06 17:19:50.246072 -0400 EDT
232435 black loss true dragan00000 2018-05-06 17:19:50.59271 -0400 EDT
232436 white loss true wingw 2018-05-06 17:19:52.150081 -0400 EDT
232437 black draw true Flavius 2018-05-06 17:19:52.412208 -0400 EDT
232438 white draw true Temp 2018-05-06 17:19:53.532049 -0400 EDT
232439 black draw true absmachine 2018-05-06 17:19:54.104958 -0400 EDT
232440 white draw true Cyanogenoid 2018-05-06 17:19:54.140432 -0400 EDT
232441 black win true Sergey1983 2018-05-06 17:19:54.220884 -0400 EDT
232442 white win true nameBrandon 2018-05-06 17:19:54.443531 -0400 EDT
232443 black loss true melco 2018-05-06 17:19:54.575276 -0400 EDT
232444 white draw true quixote 2018-05-06 17:19:55.012581 -0400 EDT
232445 black draw true Temp 2018-05-06 17:19:55.865053 -0400 EDT
232446 white draw true mikael-s-persson 2018-05-06 17:19:57.422784 -0400 EDT
232447 black draw true Ettrig 2018-05-06 17:19:59.184782 -0400 EDT
232448 white draw true blin00 2018-05-06 17:19:59.293409 -0400 EDT
232449 black loss true blin00 2018-05-06 17:19:59.386914 -0400 EDT
232450 white loss true konzy 2018-05-06 17:19:59.442789 -0400 EDT
232451 black draw true NimbyDagda 2018-05-06 17:20:00.712447 -0400 EDT
232452 white draw true UWde 2018-05-06 17:20:00.768964 -0400 EDT
232453 black loss true dss 2018-05-06 17:20:00.930952 -0400 EDT
232454 white win true War 2018-05-06 17:20:01.527336 -0400 EDT
232455 black loss true science 2018-05-06 17:20:02.305295 -0400 EDT
232456 white draw true teddybaer 2018-05-06 17:20:02.428342 -0400 EDT
232457 black win true dauec 2018-05-06 17:20:02.620461 -0400 EDT
232458 white draw true maxmin 2018-05-06 17:20:03.229012 -0400 EDT
232459 black win true thegreennapalm 2018-05-06 17:20:03.24381 -0400 EDT
232460 white - false mistermister 2018-05-06 17:20:04.776613 -0400 EDT
232461 black loss true themadone42 2018-05-06 17:20:05.001473 -0400 EDT
232462 white - false bmac 2018-05-06 17:20:05.417109 -0400 EDT
232463 black draw true themadone42 2018-05-06 17:20:05.467967 -0400 EDT
232464 white - false konzy 2018-05-06 17:20:06.07629 -0400 EDT
232465 black draw true Eru 2018-05-06 17:20:06.564703 -0400 EDT
232466 white loss true y_Sensei 2018-05-06 17:20:06.7913 -0400 EDT
232467 black draw true joel 2018-05-06 17:20:06.81955 -0400 EDT
232468 white draw true fastgm 2018-05-06 17:20:06.82484 -0400 EDT
232469 black draw true Chessie K 2018-05-06 17:20:07.378359 -0400 EDT
232470 white win true mcardillo55 2018-05-06 17:20:07.639852 -0400 EDT
232471 black loss true MANUCHESS 2018-05-06 17:20:08.271328 -0400 EDT
232472 white - false CJCPD 2018-05-06 17:20:09.110616 -0400 EDT
232473 black - false dauec 2018-05-06 17:20:09.847721 -0400 EDT
232474 white win true domi 2018-05-06 17:20:09.875271 -0400 EDT
232475 black draw true blin00 2018-05-06 17:20:10.317222 -0400 EDT
232476 white draw true just_stevo 2018-05-06 17:20:10.87522 -0400 EDT
232477 black loss true Temp 2018-05-06 17:20:10.969248 -0400 EDT
232478 white draw true locutus 2018-05-06 17:20:11.187836 -0400 EDT
232479 black - false MANUCHESS 2018-05-06 17:20:11.298097 -0400 EDT
232480 white - false Eru 2018-05-06 17:20:11.557392 -0400 EDT
232481 black draw true mikael-s-persson 2018-05-06 17:20:11.842414 -0400 EDT
232482 white win true chris_duck 2018-05-06 17:20:12.44585 -0400 EDT
232483 black win true RageAlone 2018-05-06 17:20:12.616516 -0400 EDT
232484 white draw true grondilu 2018-05-06 17:20:12.856063 -0400 EDT
232485 black win true teddybaer 2018-05-06 17:20:13.265281 -0400 EDT
232486 white loss true hyppyp 2018-05-06 17:20:13.66732 -0400 EDT
232487 black - false amannedelk 2018-05-06 17:20:14.208912 -0400 EDT
232488 white win true ArtesMagae 2018-05-06 17:20:15.586891 -0400 EDT
232489 black loss true Cheetah 2018-05-06 17:20:15.695466 -0400 EDT
232490 white win true quixote 2018-05-06 17:20:16.053013 -0400 EDT
232491 black draw true dacebonearm 2018-05-06 17:20:16.205658 -0400 EDT
232492 white - false Cyanogenoid 2018-05-06 17:20:16.884744 -0400 EDT
232493 black draw true aggg63 2018-05-06 17:20:17.204756 -0400 EDT
232494 white - false hito 2018-05-06 17:20:17.294943 -0400 EDT
232495 black draw true kram1139 2018-05-06 17:20:17.752727 -0400 EDT
232496 white - false iwontupload 2018-05-06 17:20:19.067335 -0400 EDT
232497 black win true konzy 2018-05-06 17:20:19.246761 -0400 EDT
232498 white draw true teddybaer 2018-05-06 17:20:19.297115 -0400 EDT
232499 black draw true kontrachess 2018-05-06 17:20:19.649603 -0400 EDT
232500 white draw true tadzio 2018-05-06 17:20:19.695579 -0400 EDT
232501 black - false Cyanogenoid 2018-05-06 17:20:20.186787 -0400 EDT
232502 white draw true takacsg84 2018-05-06 17:20:20.199453 -0400 EDT
232503 black draw true Pat_The_Hat 2018-05-06 17:20:20.735929 -0400 EDT
232504 white - false hito 2018-05-06 17:20:21.917283 -0400 EDT
232505 black - false Cyanogenoid 2018-05-06 17:20:22.818016 -0400 EDT
232506 white - false ianh2105 2018-05-06 17:20:23.269818 -0400 EDT
232507 black loss true Luis 2018-05-06 17:20:23.71503 -0400 EDT
232508 white - false domi 2018-05-06 17:20:24.187454 -0400 EDT
232509 black win true hanan 2018-05-06 17:20:24.339959 -0400 EDT
232510 white loss true zz4032 2018-05-06 17:20:24.592483 -0400 EDT
232511 black draw true probola 2018-05-06 17:20:24.660455 -0400 EDT
232512 white - false jorditg 2018-05-06 17:20:25.527581 -0400 EDT
232513 black - false Flopzee 2018-05-06 17:20:26.302724 -0400 EDT
232514 white loss true bbghost 2018-05-06 17:20:26.463063 -0400 EDT
232515 black draw true kontrachess 2018-05-06 17:20:26.480877 -0400 EDT
232516 white loss true mfarrill 2018-05-06 17:20:27.068673 -0400 EDT
232517 black draw true RonMcChess 2018-05-06 17:20:27.861952 -0400 EDT
232518 white draw true ElmoH59 2018-05-06 17:20:28.390846 -0400 EDT
232519 black loss true Eru 2018-05-06 17:20:28.646248 -0400 EDT
232520 white loss true drefsante 2018-05-06 17:20:29.141437 -0400 EDT
232521 black - false domi 2018-05-06 17:20:29.623837 -0400 EDT
232522 white draw true landryb 2018-05-06 17:20:30.37808 -0400 EDT
232523 black draw true grondilu 2018-05-06 17:20:30.610219 -0400 EDT
232524 white draw true ppzhupapa 2018-05-06 17:20:30.730026 -0400 EDT
232525 black win true Dagh 2018-05-06 17:20:30.942358 -0400 EDT
232526 white draw true just_stevo 2018-05-06 17:20:31.276588 -0400 EDT
232527 black win true YogiBear 2018-05-06 17:20:31.610396 -0400 EDT
232528 white - false RageAlone 2018-05-06 17:20:32.786128 -0400 EDT
232529 black win true otto 2018-05-06 17:20:33.469413 -0400 EDT
232530 white draw true kpu3uc 2018-05-06 17:20:33.7248 -0400 EDT
232531 black loss true Taras 2018-05-06 17:20:34.009362 -0400 EDT
232532 white win true cn4750 2018-05-06 17:20:34.495481 -0400 EDT
232533 black win true Slushman 2018-05-06 17:20:35.043882 -0400 EDT
232534 white draw true Galaga 2018-05-06 17:20:35.182207 -0400 EDT
232535 black - false mistermister 2018-05-06 17:20:35.399275 -0400 EDT
232536 white draw true blin00 2018-05-06 17:20:35.415772 -0400 EDT
232537 black loss true TOPKAPI 2018-05-06 17:20:35.473918 -0400 EDT
232538 white loss true amjsh 2018-05-06 17:20:35.647521 -0400 EDT
232539 black draw true rybot 2018-05-06 17:20:35.884713 -0400 EDT
232540 white loss true IanO 2018-05-06 17:20:36.65461 -0400 EDT
232541 black win true rollerRandom 2018-05-06 17:20:37.918973 -0400 EDT
232542 white win true nepser 2018-05-06 17:20:38.642049 -0400 EDT
232543 black - false Cyanogenoid 2018-05-06 17:20:38.842723 -0400 EDT
232544 white draw true ElmoH59 2018-05-06 17:20:39.176317 -0400 EDT
232545 black win true lliu355 2018-05-06 17:20:39.594495 -0400 EDT
232546 white draw true themadone42 2018-05-06 17:20:40.012814 -0400 EDT
232547 black draw true Insertcleverphrasehere 2018-05-06 17:20:41.098004 -0400 EDT
232548 white win true moliarti 2018-05-06 17:20:41.82703 -0400 EDT
232549 black draw true FrancoisPays 2018-05-06 17:20:42.956723 -0400 EDT
232550 white loss true MrNinjaPilot 2018-05-06 17:20:43.142095 -0400 EDT
232551 black loss true mattchess 2018-05-06 17:20:44.307693 -0400 EDT
232552 white - false chris_duck 2018-05-06 17:20:44.817781 -0400 EDT
232553 black - false Google Colab 2018-05-06 17:20:44.969202 -0400 EDT
232554 white loss true RageAlone 2018-05-06 17:20:45.037303 -0400 EDT
232555 black loss true vsd_123 2018-05-06 17:20:45.631108 -0400 EDT
232556 white win true Isla 2018-05-06 17:20:47.267479 -0400 EDT
232557 black loss true mp 2018-05-06 17:20:47.61541 -0400 EDT
232558 white draw true AySz88 2018-05-06 17:20:48.703293 -0400 EDT
232559 black draw true alonamaloh 2018-05-06 17:20:49.584059 -0400 EDT
232560 white win true [email protected] 2018-05-06 17:20:49.796545 -0400 EDT
232561 black loss true mikael-s-persson 2018-05-06 17:20:49.86329 -0400 EDT
232562 white draw true jnewlin12345 2018-05-06 17:20:51.537123 -0400 EDT
232563 black - false j33. 2018-05-06 17:20:51.57862 -0400 EDT
232564 white win true teddybaer 2018-05-06 17:20:52.093682 -0400 EDT
232565 black draw true pes 2018-05-06 17:20:52.388981 -0400 EDT
232566 white - false Cyanogenoid 2018-05-06 17:20:52.434813 -0400 EDT
232567 black loss true blin00 2018-05-06 17:20:52.6339 -0400 EDT
232568 white win true IanO 2018-05-06 17:20:53.926576 -0400 EDT
232569 black draw true bbghost 2018-05-06 17:20:54.289998 -0400 EDT
232570 white - false hal9000 2018-05-06 17:20:54.87811 -0400 EDT
232571 black draw true quixote 2018-05-06 17:20:55.496147 -0400 EDT
232572 white draw true knightgrinder 2018-05-06 17:20:55.829543 -0400 EDT
232573 black win true science 2018-05-06 17:20:59.391674 -0400 EDT
232574 white draw true just_stevo 2018-05-06 17:20:59.585019 -0400 EDT
232575 black - false xicesky 2018-05-06 17:21:00.50157 -0400 EDT
232576 white win true dew 2018-05-06 17:21:00.792476 -0400 EDT
232577 black win true RageAlone 2018-05-06 17:21:01.286129 -0400 EDT
232578 white win true tomtor 2018-05-06 17:21:02.218013 -0400 EDT
232579 black loss true ianh2105 2018-05-06 17:21:02.576252 -0400 EDT
232580 white draw true mcardillo55 2018-05-06 17:21:02.645516 -0400 EDT
232581 black draw true win-gpu-4inst 2018-05-06 17:21:03.065426 -0400 EDT
232582 white loss true chesspjn 2018-05-06 17:21:03.540165 -0400 EDT
232583 black win true nameBrandon 2018-05-06 17:21:03.650402 -0400 EDT
232584 white - false mk314 2018-05-06 17:21:03.973883 -0400 EDT
232585 black draw true mattwhilden 2018-05-06 17:21:05.177093 -0400 EDT
232586 white draw true glitzerpony 2018-05-06 17:21:05.622378 -0400 EDT
232587 black loss true amicic 2018-05-06 17:21:05.720951 -0400 EDT
232588 white - false jorditg 2018-05-06 17:21:05.960497 -0400 EDT
232589 black - false RICHARDTHULSTRUP 2018-05-06 17:21:06.278609 -0400 EDT
232590 white draw true Insertcleverphrasehere 2018-05-06 17:21:06.780765 -0400 EDT
232591 black - false mpigois 2018-05-06 17:21:06.983488 -0400 EDT
232592 white draw true dss 2018-05-06 17:21:07.135413 -0400 EDT
232593 black draw true jason2 2018-05-06 17:21:07.861858 -0400 EDT
232594 white win true Temp 2018-05-06 17:21:08.457711 -0400 EDT
232595 black win true bbghost 2018-05-06 17:21:10.096368 -0400 EDT
232596 white draw true FrancoisPays 2018-05-06 17:21:10.509385 -0400 EDT
232597 black draw true mfarrill 2018-05-06 17:21:10.829991 -0400 EDT
232598 white - false mistermister 2018-05-06 17:21:10.857939 -0400 EDT
232599 black - false Assios 2018-05-06 17:21:10.865873 -0400 EDT
232600 white draw true NoonKnight 2018-05-06 17:21:12.276948 -0400 EDT
232601 black draw true Cyanogenoid 2018-05-06 17:21:12.421785 -0400 EDT
232602 white draw true quixote 2018-05-06 17:21:12.597123 -0400 EDT
232603 black - false Redtarga 2018-05-06 17:21:12.613196 -0400 EDT
232604 white - false hal9000 2018-05-06 17:21:15.129499 -0400 EDT
232605 black loss true dacebonearm 2018-05-06 17:21:15.295286 -0400 EDT
232606 white draw true avas_goridze 2018-05-06 17:21:15.88645 -0400 EDT
232607 black - false fastgm 2018-05-06 17:21:15.921731 -0400 EDT
232608 white draw true atraxazero1 2018-05-06 17:21:16.107899 -0400 EDT
232609 black draw true javiros 2018-05-06 17:21:17.673014 -0400 EDT
232610 white win true Slushman 2018-05-06 17:21:17.934839 -0400 EDT
232611 black win true blin00 2018-05-06 17:21:18.611609 -0400 EDT
232612 white win true alonamaloh 2018-05-06 17:21:18.728748 -0400 EDT
232613 black draw true amjsh 2018-05-06 17:21:18.822089 -0400 EDT
232614 white loss true rachelhikes 2018-05-06 17:21:20.327602 -0400 EDT
232615 black win true blin00 2018-05-06 17:21:22.402405 -0400 EDT
232616 white draw true dss 2018-05-06 17:21:22.644851 -0400 EDT
232617 black draw true solarlight 2018-05-06 17:21:23.119027 -0400 EDT
232618 white loss true AkariTakai 2018-05-06 17:21:23.21458 -0400 EDT
232619 black draw true worm 2018-05-06 17:21:23.316358 -0400 EDT
232620 white - false MrNinjaPilot 2018-05-06 17:21:23.739266 -0400 EDT
232621 black - false kontrachess 2018-05-06 17:21:23.784917 -0400 EDT
232622 white - false hal9000 2018-05-06 17:21:24.079128 -0400 EDT
232623 black win true Google Colab 2018-05-06 17:21:24.285537 -0400 EDT
232624 white draw true Galaga 2018-05-06 17:21:24.847376 -0400 EDT
232625 black win true joel 2018-05-06 17:21:25.026178 -0400 EDT
232626 white draw true dss 2018-05-06 17:21:25.651383 -0400 EDT
232627 black loss true dianmao 2018-05-06 17:21:27.130387 -0400 EDT
232628 white loss true dss 2018-05-06 17:21:27.155796 -0400 EDT
232629 black win true marcuschho 2018-05-06 17:21:27.621355 -0400 EDT
232630 white draw true just_stevo 2018-05-06 17:21:27.705039 -0400 EDT
232631 black win true quixote 2018-05-06 17:21:28.037302 -0400 EDT
232632 white loss true newplato 2018-05-06 17:21:28.129484 -0400 EDT
232633 black draw true ianh2105 2018-05-06 17:21:29.581077 -0400 EDT
232634 white - false bmac 2018-05-06 17:21:29.599633 -0400 EDT
232635 black - false hal9000 2018-05-06 17:21:31.812423 -0400 EDT
232636 white - false Siele 2018-05-06 17:21:32.611709 -0400 EDT
232637 black - false kontrachess 2018-05-06 17:21:32.797027 -0400 EDT
232638 white - false kram1139 2018-05-06 17:21:33.563416 -0400 EDT
232639 black draw true teddybaer 2018-05-06 17:21:33.740418 -0400 EDT
232640 white draw true Google Colab 2018-05-06 17:21:34.553097 -0400 EDT
232641 black win true mistermister 2018-05-06 17:21:35.669981 -0400 EDT
232642 white - false bmac 2018-05-06 17:21:35.937717 -0400 EDT
232643 black win true atraxazero1 2018-05-06 17:21:36.235791 -0400 EDT
232644 white draw true Taras 2018-05-06 17:21:36.279345 -0400 EDT
232645 black draw true ElmoH59 2018-05-06 17:21:36.30351 -0400 EDT
232646 white loss true konzy 2018-05-06 17:21:37.034891 -0400 EDT
232647 black draw true FrancoisPays 2018-05-06 17:21:40.175176 -0400 EDT
232648 white draw true Eru 2018-05-06 17:21:41.695798 -0400 EDT
232649 black draw true mattyb 2018-05-06 17:21:42.892494 -0400 EDT
232650 white loss true Google Colab 2018-05-06 17:21:43.117222 -0400 EDT
232651 black draw true ryanschroer 2018-05-06 17:21:44.056443 -0400 EDT
232652 white draw true teddybaer 2018-05-06 17:21:44.476734 -0400 EDT
232653 black - false MrNinjaPilot 2018-05-06 17:21:45.83049 -0400 EDT
232654 white draw true mfarrill 2018-05-06 17:21:46.000017 -0400 EDT
232655 black - false Cyanogenoid 2018-05-06 17:21:47.245914 -0400 EDT
232656 white - false dauec 2018-05-06 17:21:47.439144 -0400 EDT
232657 black win true nicolas-guarin 2018-05-06 17:21:49.237751 -0400 EDT
232658 white win true dedmonds 2018-05-06 17:21:49.646363 -0400 EDT
232659 black loss true bbghost 2018-05-06 17:21:50.063169 -0400 EDT
232660 white draw true atraxazero1 2018-05-06 17:21:50.138266 -0400 EDT
232661 black loss true amannedelk 2018-05-06 17:21:50.903458 -0400 EDT
232662 white loss true dragan00000 2018-05-06 17:21:50.913772 -0400 EDT
232663 black loss true dss 2018-05-06 17:21:52.827842 -0400 EDT
232664 white win true Eru 2018-05-06 17:21:53.601304 -0400 EDT
232665 black - false ianh2105 2018-05-06 17:21:53.725689 -0400 EDT
232666 white draw true hito 2018-05-06 17:21:53.782052 -0400 EDT
232667 black win true jnewlin12345 2018-05-06 17:21:54.37251 -0400 EDT
232668 white - false MANUCHESS 2018-05-06 17:21:54.454504 -0400 EDT
232669 black win true domi 2018-05-06 17:21:54.590711 -0400 EDT
232670 white draw true nepser 2018-05-06 17:21:54.861108 -0400 EDT
232671 black - false hito 2018-05-06 17:21:55.616725 -0400 EDT
232672 white loss true otto 2018-05-06 17:21:55.709039 -0400 EDT
232673 black loss true blin00 2018-05-06 17:21:55.989016 -0400 EDT
232674 white - false Cyanogenoid 2018-05-06 17:21:56.035166 -0400 EDT
232675 black win true jorditg 2018-05-06 17:21:56.194589 -0400 EDT
232676 white draw true konzy 2018-05-06 17:21:56.380465 -0400 EDT
232677 black win true amannedelk 2018-05-06 17:21:56.508159 -0400 EDT
232678 white win true fastah 2018-05-06 17:21:57.411306 -0400 EDT
232679 black - false Cyanogenoid 2018-05-06 17:21:58.135035 -0400 EDT
232680 white - false mpigois 2018-05-06 17:21:59.715253 -0400 EDT
232681 black - false Cyanogenoid 2018-05-06 17:21:59.851739 -0400 EDT
232682 white - false mattyb 2018-05-06 17:21:59.979142 -0400 EDT
232683 black draw true Temp 2018-05-06 17:22:00.617269 -0400 EDT
232684 white win true mikael-s-persson 2018-05-06 17:22:01.253487 -0400 EDT
232685 black loss true KillerDucky 2018-05-06 17:22:02.147531 -0400 EDT
232686 white win true zeycus 2018-05-06 17:22:02.606868 -0400 EDT
232687 black - false RageAlone 2018-05-06 17:22:03.233181 -0400 EDT
232688 white win true AySz88 2018-05-06 17:22:03.790222 -0400 EDT
232689 black draw true OrbitTheSun 2018-05-06 17:22:04.240641 -0400 EDT
232690 white draw true mfarrill 2018-05-06 17:22:04.778077 -0400 EDT
232691 black loss true amjsh 2018-05-06 17:22:04.92648 -0400 EDT
232692 white - false MrNinjaPilot 2018-05-06 17:22:05.753893 -0400 EDT
232693 black loss true fncll 2018-05-06 17:22:06.298055 -0400 EDT
232694 white loss true quixote 2018-05-06 17:22:07.331524 -0400 EDT
232695 black loss true shwartz01 2018-05-06 17:22:07.379869 -0400 EDT
232696 white draw true minkjellybean 2018-05-06 17:22:07.555631 -0400 EDT
232697 black - false RageAlone 2018-05-06 17:22:08.907955 -0400 EDT
232698 white draw true almost_sente 2018-05-06 17:22:09.099485 -0400 EDT
232699 black draw true bbghost 2018-05-06 17:22:09.630636 -0400 EDT
232700 white draw true almost_sente 2018-05-06 17:22:10.36087 -0400 EDT
232701 black draw true teddybaer 2018-05-06 17:22:10.366622 -0400 EDT
232702 white win true ertungaV2 2018-05-06 17:22:10.890301 -0400 EDT
232703 black draw true FrancoisPays 2018-05-06 17:22:11.805883 -0400 EDT
232704 white draw true bns 2018-05-06 17:22:11.920027 -0400 EDT
232705 black draw true War 2018-05-06 17:22:12.151876 -0400 EDT
232706 white - false mk314 2018-05-06 17:22:13.298526 -0400 EDT
232707 black draw true ArtesMagae 2018-05-06 17:22:13.771184 -0400 EDT
232708 white draw true Balu111 2018-05-06 17:22:13.880824 -0400 EDT
232709 black draw true mattwhilden 2018-05-06 17:22:14.45259 -0400 EDT
232710 white - false Cyanogenoid 2018-05-06 17:22:14.462337 -0400 EDT
232711 black win true atraxazero1 2018-05-06 17:22:14.562022 -0400 EDT
232712 white - false chris_duck 2018-05-06 17:22:15.233352 -0400 EDT
232713 black draw true tadzio 2018-05-06 17:22:15.674668 -0400 EDT
232714 white loss true vattu 2018-05-06 17:22:16.029155 -0400 EDT
232715 black draw true blin00 2018-05-06 17:22:18.856044 -0400 EDT
232716 white loss true mistermister 2018-05-06 17:22:19.020625 -0400 EDT
232717 black loss true domi 2018-05-06 17:22:19.405422 -0400 EDT
232718 white - false iwontupload 2018-05-06 17:22:19.520627 -0400 EDT
232719 black draw true ianh2105 2018-05-06 17:22:20.810506 -0400 EDT
232720 white loss true Eru 2018-05-06 17:22:21.112602 -0400 EDT
232721 black draw true Pat_The_Hat 2018-05-06 17:22:21.5416 -0400 EDT
232722 white - false Cyanogenoid 2018-05-06 17:22:22.79682 -0400 EDT
232723 black draw true Slushman 2018-05-06 17:22:23.166394 -0400 EDT
232724 white win true blin00 2018-05-06 17:22:24.440311 -0400 EDT
232725 black draw true Galaga 2018-05-06 17:22:25.081303 -0400 EDT
232726 white - false hal9000 2018-05-06 17:22:25.189908 -0400 EDT
232727 black - false j33. 2018-05-06 17:22:26.183126 -0400 EDT
232728 white draw true RonMcChess 2018-05-06 17:22:27.753816 -0400 EDT
232729 black draw true FrancoisPays 2018-05-06 17:22:27.774197 -0400 EDT
232730 white loss true nameBrandon 2018-05-06 17:22:28.463397 -0400 EDT
232731 black loss true dss 2018-05-06 17:22:29.337857 -0400 EDT
232732 white win true RageAlone 2018-05-06 17:22:29.875174 -0400 EDT
232733 black - false wizhoger 2018-05-06 17:22:30.005682 -0400 EDT
232734 white draw true quixote 2018-05-06 17:22:31.770801 -0400 EDT
232735 black draw true alonamaloh 2018-05-06 17:22:32.976646 -0400 EDT
232736 white loss true ezpz 2018-05-06 17:22:33.312649 -0400 EDT
232737 black loss true redexp 2018-05-06 17:22:33.7995 -0400 EDT
232738 white - false Bryan_LC0 2018-05-06 17:22:34.500487 -0400 EDT
232739 black win true nepser 2018-05-06 17:22:35.156216 -0400 EDT
232740 white win true olomana 2018-05-06 17:22:35.316082 -0400 EDT
232741 black draw true mcardillo55 2018-05-06 17:22:36.110392 -0400 EDT
232742 white draw true jorditg 2018-05-06 17:22:36.446228 -0400 EDT
232743 black loss true hal9000 2018-05-06 17:22:36.795798 -0400 EDT
232744 white - false mk314 2018-05-06 17:22:37.683077 -0400 EDT
232745 black - false mpigois 2018-05-06 17:22:38.295326 -0400 EDT
232746 white draw true ianh2105 2018-05-06 17:22:38.353482 -0400 EDT
232747 black draw true ImmoHell 2018-05-06 17:22:38.709472 -0400 EDT
232748 white draw true dacebonearm 2018-05-06 17:22:40.190877 -0400 EDT
232749 black loss true grondilu 2018-05-06 17:22:40.75384 -0400 EDT
232750 white draw true jorditg 2018-05-06 17:22:41.079944 -0400 EDT
232751 black draw true quixote 2018-05-06 17:22:41.26386 -0400 EDT
232752 white draw true mistermister 2018-05-06 17:22:41.288161 -0400 EDT
232753 black draw true just_stevo 2018-05-06 17:22:41.32342 -0400 EDT
232754 white win true mattchess 2018-05-06 17:22:41.566441 -0400 EDT
232755 black - false Assios 2018-05-06 17:22:42.202114 -0400 EDT
232756 white - false some1 2018-05-06 17:22:43.8475 -0400 EDT
232757 black - false RICHARDTHULSTRUP 2018-05-06 17:22:43.953551 -0400 EDT
232758 white draw true RageAlone 2018-05-06 17:22:44.450593 -0400 EDT
232759 black - false hal9000 2018-05-06 17:22:45.425579 -0400 EDT
232760 white draw true rogercalhoun 2018-05-06 17:22:46.265013 -0400 EDT
232761 black win true zz4032 2018-05-06 17:22:47.881346 -0400 EDT
232762 white loss true Google Colab 2018-05-06 17:22:47.934308 -0400 EDT
232763 black draw true y_Sensei 2018-05-06 17:22:48.043054 -0400 EDT
232764 white draw true mjlitola 2018-05-06 17:22:48.763406 -0400 EDT
232765 black win true Eru 2018-05-06 17:22:48.909516 -0400 EDT
232766 white draw true landryb 2018-05-06 17:22:49.392954 -0400 EDT
232767 black loss true amjsh 2018-05-06 17:22:50.249597 -0400 EDT
232768 white draw true Temp 2018-05-06 17:22:50.301702 -0400 EDT
232769 black - false edoublel 2018-05-06 17:22:50.468992 -0400 EDT
232770 white draw true ppzhupapa 2018-05-06 17:22:51.611441 -0400 EDT
232771 black win true Redtarga 2018-05-06 17:22:52.260562 -0400 EDT
232772 white loss true mattwhilden 2018-05-06 17:22:52.556986 -0400 EDT
232773 black draw true RageAlone 2018-05-06 17:22:52.725562 -0400 EDT
232774 white win true dss 2018-05-06 17:22:53.613275 -0400 EDT
232775 black - false MrNinjaPilot 2018-05-06 17:22:54.063543 -0400 EDT
232776 white draw true Taras 2018-05-06 17:22:54.122365 -0400 EDT
232777 black - false hal9000 2018-05-06 17:22:54.389827 -0400 EDT
232778 white win true dedmonds 2018-05-06 17:22:56.420786 -0400 EDT
232779 black win true blin00 2018-05-06 17:22:56.603989 -0400 EDT
232780 white draw true konzy 2018-05-06 17:22:56.699932 -0400 EDT
232781 black - false marcuschho 2018-05-06 17:22:57.12849 -0400 EDT
232782 white loss true RonMcChess 2018-05-06 17:22:57.72847 -0400 EDT
232783 black draw true moliarti 2018-05-06 17:22:59.195978 -0400 EDT
232784 white draw true NoonKnight 2018-05-06 17:22:59.448678 -0400 EDT
232785 black - false intochess 2018-05-06 17:22:59.773302 -0400 EDT
232786 white - false bmac 2018-05-06 17:22:59.883749 -0400 EDT
232787 black win true bbghost 2018-05-06 17:23:00.784731 -0400 EDT
232788 white loss true emurphyt 2018-05-06 17:23:00.832147 -0400 EDT
232789 black draw true rhdunn 2018-05-06 17:23:00.953849 -0400 EDT
232790 white draw true joel 2018-05-06 17:23:00.98864 -0400 EDT
232791 black draw true [email protected] 2018-05-06 17:23:01.269336 -0400 EDT
232792 white draw true konzy 2018-05-06 17:23:02.440036 -0400 EDT
232793 black - false Siele 2018-05-06 17:23:02.854959 -0400 EDT
232794 white loss true alonamaloh 2018-05-06 17:23:03.721484 -0400 EDT
232795 black win true avas_goridze 2018-05-06 17:23:03.911613 -0400 EDT
232796 white - false kram1139 2018-05-06 17:23:04.281085 -0400 EDT
232797 black loss true blin00 2018-05-06 17:23:04.667179 -0400 EDT
232798 white loss true mcardillo55 2018-05-06 17:23:05.187295 -0400 EDT
232799 black draw true FrancoisPays 2018-05-06 17:23:05.234253 -0400 EDT
232800 white loss true Galaga 2018-05-06 17:23:05.31017 -0400 EDT
232801 black - false bmac 2018-05-06 17:23:06.208964 -0400 EDT
232802 white draw true jorditg 2018-05-06 17:23:06.390135 -0400 EDT
232803 black draw true ImmoHell 2018-05-06 17:23:07.64196 -0400 EDT
232804 white win true ianh2105 2018-05-06 17:23:07.998806 -0400 EDT
232805 black - false hal9000 2018-05-06 17:23:08.53346 -0400 EDT
232806 white draw true mfarrill 2018-05-06 17:23:08.815982 -0400 EDT
232807 black draw true ianh2105 2018-05-06 17:23:09.919659 -0400 EDT
232808 white draw true dss 2018-05-06 17:23:10.349288 -0400 EDT
232809 black win true just_stevo 2018-05-06 17:23:10.364465 -0400 EDT
232810 white draw true emurphyt 2018-05-06 17:23:11.472369 -0400 EDT
232811 black draw true Google Colab 2018-05-06 17:23:13.797827 -0400 EDT
232812 white draw true shwartz01 2018-05-06 17:23:13.99057 -0400 EDT
232813 black - false kpu3uc 2018-05-06 17:23:14.734855 -0400 EDT
232814 white draw true jnewlin12345 2018-05-06 17:23:14.936161 -0400 EDT
232815 black - false dauec 2018-05-06 17:23:17.712471 -0400 EDT
232816 white - false grondilu 2018-05-06 17:23:18.426915 -0400 EDT
232817 black loss true rod 2018-05-06 17:23:19.184518 -0400 EDT
232818 white - false chuckpaulson 2018-05-06 17:23:19.356154 -0400 EDT
232819 black draw true amannedelk 2018-05-06 17:23:20.367416 -0400 EDT
232820 white draw true mfarrill 2018-05-06 17:23:20.898866 -0400 EDT
232821 black loss true themadone42 2018-05-06 17:23:22.202654 -0400 EDT
232822 white - false Cyanogenoid 2018-05-06 17:23:22.638218 -0400 EDT
232823 black loss true nameBrandon 2018-05-06 17:23:22.664802 -0400 EDT
232824 white - false kontrachess 2018-05-06 17:23:23.036088 -0400 EDT
232825 black win true https://youtu.be/Nb1VOQRs-Vs 2018-05-06 17:23:23.229677 -0400 EDT
232826 white draw true MrElk 2018-05-06 17:23:23.468345 -0400 EDT
232827 black loss true langrisser 2018-05-06 17:23:24.171133 -0400 EDT
232828 white draw true amannedelk 2018-05-06 17:23:24.280519 -0400 EDT
232829 black win true MANUCHESS 2018-05-06 17:23:24.949277 -0400 EDT
232830 white draw true bbghost 2018-05-06 17:23:25.697905 -0400 EDT
232831 black - false MrNinjaPilot 2018-05-06 17:23:25.961294 -0400 EDT
232832 white - false hito 2018-05-06 17:23:26.094347 -0400 EDT
232833 black - false Cyanogenoid 2018-05-06 17:23:26.381729 -0400 EDT
232834 white win true bbghost 2018-05-06 17:23:26.813692 -0400 EDT
232835 black draw true ryanschroer 2018-05-06 17:23:27.698314 -0400 EDT
232836 white - false fastgm 2018-05-06 17:23:29.408008 -0400 EDT
232837 black draw true mjlitola 2018-05-06 17:23:30.14061 -0400 EDT
232838 white - false mattyb 2018-05-06 17:23:30.244603 -0400 EDT
232839 black - false kwen 2018-05-06 17:23:31.004062 -0400 EDT
232840 white - false ArtesMagae 2018-05-06 17:23:31.083347 -0400 EDT
232841 black draw true KillerDucky 2018-05-06 17:23:31.215601 -0400 EDT
232842 white - false mpigois 2018-05-06 17:23:31.224211 -0400 EDT
232843 black - false kontrachess 2018-05-06 17:23:31.822593 -0400 EDT
232844 white draw true MANUCHESS 2018-05-06 17:23:32.689701 -0400 EDT
232845 black draw true fastah 2018-05-06 17:23:33.035144 -0400 EDT
232846 white win true mikael-s-persson 2018-05-06 17:23:33.222655 -0400 EDT
232847 black - false Cyanogenoid 2018-05-06 17:23:33.37684 -0400 EDT
232848 white win true Redtarga 2018-05-06 17:23:33.799163 -0400 EDT
232849 black loss true atraxazero1 2018-05-06 17:23:34.277901 -0400 EDT
232850 white - false hito 2018-05-06 17:23:34.909489 -0400 EDT
232851 black - false Cyanogenoid 2018-05-06 17:23:34.991619 -0400 EDT
232852 white win true Slushman 2018-05-06 17:23:35.321546 -0400 EDT
232853 black - false ianh2105 2018-05-06 17:23:35.399341 -0400 EDT
232854 white draw true y_Sensei 2018-05-06 17:23:35.530135 -0400 EDT
232855 black - false MrNinjaPilot 2018-05-06 17:23:35.977766 -0400 EDT
232856 white draw true FrancoisPays 2018-05-06 17:23:36.896537 -0400 EDT
232857 black - false hito 2018-05-06 17:23:37.026691 -0400 EDT
232858 white win true ezpz 2018-05-06 17:23:39.133036 -0400 EDT
232859 black draw true jolt80 2018-05-06 17:23:39.948441 -0400 EDT
232860 white - false RageAlone 2018-05-06 17:23:40.573722 -0400 EDT
232861 black draw true Taras 2018-05-06 17:23:40.635014 -0400 EDT
232862 white win true HJElliott 2018-05-06 17:23:40.713709 -0400 EDT
232863 black draw true dacebonearm 2018-05-06 17:23:40.898009 -0400 EDT
232864 white - false kontrachess 2018-05-06 17:23:41.012652 -0400 EDT
232865 black win true otto 2018-05-06 17:23:41.119933 -0400 EDT
232866 white draw true [email protected] 2018-05-06 17:23:41.17353 -0400 EDT
232867 black draw true blin00 2018-05-06 17:23:41.523538 -0400 EDT
232868 white draw true Temp 2018-05-06 17:23:42.27042 -0400 EDT
232869 black - false mk314 2018-05-06 17:23:43.721365 -0400 EDT
232870 white - false Cyanogenoid 2018-05-06 17:23:44.813172 -0400 EDT
232871 black win true Galaga 2018-05-06 17:23:44.906084 -0400 EDT
232872 white draw true Isla 2018-05-06 17:23:45.56567 -0400 EDT
232873 black - false chris_duck 2018-05-06 17:23:45.661059 -0400 EDT
232874 white - false intochess 2018-05-06 17:23:46.483336 -0400 EDT
232875 black loss true Bryan_LC0 2018-05-06 17:23:46.607293 -0400 EDT
232876 white draw true jorditg 2018-05-06 17:23:46.71291 -0400 EDT
232877 black - false jolt80 2018-05-06 17:23:48.499917 -0400 EDT
232878 white loss true dedmonds 2018-05-06 17:23:48.817857 -0400 EDT
232879 black draw true jorditg 2018-05-06 17:23:50.13346 -0400 EDT
232880 white win true FrancoisPays 2018-05-06 17:23:50.191205 -0400 EDT
232881 black draw true quixote 2018-05-06 17:23:51.84265 -0400 EDT
232882 white win true IanO 2018-05-06 17:23:52.145744 -0400 EDT
232883 black loss true landryb 2018-05-06 17:23:52.814679 -0400 EDT
232884 white - false Cyanogenoid 2018-05-06 17:23:53.189849 -0400 EDT
232885 black draw true rod 2018-05-06 17:23:53.37344 -0400 EDT
232886 white win true blin00 2018-05-06 17:23:53.52324 -0400 EDT
232887 black draw true ArtesMagae 2018-05-06 17:23:53.636061 -0400 EDT
232888 white - false Wonko42 2018-05-06 17:23:53.954762 -0400 EDT
232889 black draw true syjytg 2018-05-06 17:23:53.979672 -0400 EDT
232890 white draw true ezpz 2018-05-06 17:23:54.28104 -0400 EDT
232891 black draw true themadone42 2018-05-06 17:23:54.994057 -0400 EDT
232892 white win true dragan00000 2018-05-06 17:23:55.195083 -0400 EDT
232893 black draw true RonMcChess 2018-05-06 17:23:55.424728 -0400 EDT
232894 white loss true hal9000 2018-05-06 17:23:55.559985 -0400 EDT
232895 black draw true mattchess 2018-05-06 17:23:55.830517 -0400 EDT
232896 white loss true amannedelk 2018-05-06 17:23:56.20919 -0400 EDT
232897 black draw true nepser 2018-05-06 17:23:56.298067 -0400 EDT
232898 white win true mistermister 2018-05-06 17:23:56.674669 -0400 EDT
232899 black loss true War 2018-05-06 17:23:56.881703 -0400 EDT
232900 white draw true Slushman 2018-05-06 17:23:57.158477 -0400 EDT
232901 black draw true mfarrill 2018-05-06 17:23:57.725003 -0400 EDT
232902 white draw true just_stevo 2018-05-06 17:23:57.78389 -0400 EDT
232903 black loss true alonamaloh 2018-05-06 17:23:58.198029 -0400 EDT
232904 white loss true amannedelk 2018-05-06 17:23:58.740216 -0400 EDT
232905 black draw true mcardillo55 2018-05-06 17:23:58.925827 -0400 EDT
232906 white draw true ianh2105 2018-05-06 17:23:58.974893 -0400 EDT
232907 black draw true RageAlone 2018-05-06 17:23:59.985248 -0400 EDT
232908 white - false j33. 2018-05-06 17:24:00.726018 -0400 EDT
232909 black draw true teck45 2018-05-06 17:24:01.52577 -0400 EDT
232910 white loss true Dagh 2018-05-06 17:24:01.909585 -0400 EDT
232911 black draw true quixote 2018-05-06 17:24:01.97345 -0400 EDT
232912 white loss true dss 2018-05-06 17:24:02.129708 -0400 EDT
232913 black draw true XPPawn01 2018-05-06 17:24:02.775747 -0400 EDT
232914 white draw true quixote 2018-05-06 17:24:03.010834 -0400 EDT
232915 black win true ianh2105 2018-05-06 17:24:03.4134 -0400 EDT
232916 white draw true absmachine 2018-05-06 17:24:03.942402 -0400 EDT
232917 black win true Eru 2018-05-06 17:24:04.016688 -0400 EDT
232918 white draw true mattwhilden 2018-05-06 17:24:04.683874 -0400 EDT
232919 black draw true IOExceptional 2018-05-06 17:24:05.104494 -0400 EDT
232920 white draw true RageAlone 2018-05-06 17:24:05.664844 -0400 EDT
232921 black - false mk314 2018-05-06 17:24:08.100428 -0400 EDT
232922 white win true dss 2018-05-06 17:24:08.192495 -0400 EDT
232923 black - false mpigois 2018-05-06 17:24:08.777308 -0400 EDT
232924 white draw true syjytg 2018-05-06 17:24:09.034758 -0400 EDT
232925 black draw true PeterLCZero 2018-05-06 17:24:09.272349 -0400 EDT
232926 white loss true avas_goridze 2018-05-06 17:24:10.352224 -0400 EDT
232927 black draw true joel 2018-05-06 17:24:11.080189 -0400 EDT
232928 white win true dacebonearm 2018-05-06 17:24:11.457588 -0400 EDT
232929 black loss true mistermister 2018-05-06 17:24:11.873238 -0400 EDT
232930 white - false Assios 2018-05-06 17:24:12.386213 -0400 EDT
232931 black - false xicesky 2018-05-06 17:24:12.457945 -0400 EDT
232932 white - false Deathwolf 2018-05-06 17:24:12.913662 -0400 EDT
232933 black loss true Temp 2018-05-06 17:24:13.73693 -0400 EDT
232934 white loss true jorditg 2018-05-06 17:24:14.949142 -0400 EDT
232935 black draw true leelapartner 2018-05-06 17:24:15.086755 -0400 EDT
232936 white win true amjsh 2018-05-06 17:24:15.590037 -0400 EDT
232937 black win true ricksant2003 2018-05-06 17:24:15.94985 -0400 EDT
232938 white draw true win-gpu-4inst 2018-05-06 17:24:16.033006 -0400 EDT
232939 black draw true rachelhikes 2018-05-06 17:24:16.321638 -0400 EDT
232940 white draw true dss 2018-05-06 17:24:17.223787 -0400 EDT
232941 black draw true RageAlone 2018-05-06 17:24:18.309287 -0400 EDT
232942 white win true konzy 2018-05-06 17:24:19.850423 -0400 EDT
232943 black draw true Taras 2018-05-06 17:24:20.488615 -0400 EDT
232944 white - false iwontupload 2018-05-06 17:24:20.512828 -0400 EDT
232945 black loss true y_Sensei 2018-05-06 17:24:21.354639 -0400 EDT
232946 white - false RICHARDTHULSTRUP 2018-05-06 17:24:21.375756 -0400 EDT
232947 black draw true bbghost 2018-05-06 17:24:21.560644 -0400 EDT
232948 white - false gms 2018-05-06 17:24:21.751529 -0400 EDT
232949 black loss true bbghost 2018-05-06 17:24:22.114658 -0400 EDT
232950 white draw true hal9000 2018-05-06 17:24:22.195693 -0400 EDT
232951 black draw true mfarrill 2018-05-06 17:24:22.759025 -0400 EDT
232952 white draw true mjlitola 2018-05-06 17:24:22.837292 -0400 EDT
232953 black draw true science 2018-05-06 17:24:22.875904 -0400 EDT
232954 white - false amicic 2018-05-06 17:24:23.911668 -0400 EDT
232955 black draw true TripleAttack 2018-05-06 17:24:23.96689 -0400 EDT
232956 white draw true nepser 2018-05-06 17:24:24.161571 -0400 EDT
232957 black draw true mikael-s-persson 2018-05-06 17:24:25.007934 -0400 EDT
232958 white draw true Pat_The_Hat 2018-05-06 17:24:25.377953 -0400 EDT
232959 black draw true AkariTakai 2018-05-06 17:24:25.491485 -0400 EDT
232960 white draw true YogiBear 2018-05-06 17:24:25.847362 -0400 EDT
232961 black loss true nicolas-guarin 2018-05-06 17:24:27.090271 -0400 EDT
232962 white win true bbghost 2018-05-06 17:24:27.430475 -0400 EDT
232963 black loss true gusti44 2018-05-06 17:24:28.294833 -0400 EDT
232964 white draw true jnewlin12345 2018-05-06 17:24:30.061618 -0400 EDT
232965 black - false bmac 2018-05-06 17:24:30.166439 -0400 EDT
232966 white draw true emurphyt 2018-05-06 17:24:31.262586 -0400 EDT
232967 black draw true hal9000 2018-05-06 17:24:31.539404 -0400 EDT
232968 white loss true blin00 2018-05-06 17:24:31.928576 -0400 EDT
232969 black loss true Galaga 2018-05-06 17:24:32.323786 -0400 EDT
232970 white win true just_stevo 2018-05-06 17:24:32.561562 -0400 EDT
232971 black draw true nameBrandon 2018-05-06 17:24:32.604479 -0400 EDT
232972 white loss true MrNinjaPilot 2018-05-06 17:24:33.291553 -0400 EDT
232973 black - false amicic 2018-05-06 17:24:33.650512 -0400 EDT
232974 white draw true Google Colab 2018-05-06 17:24:34.609481 -0400 EDT
232975 black - false kram1139 2018-05-06 17:24:34.923727 -0400 EDT
232976 white draw true bbghost 2018-05-06 17:24:35.249223 -0400 EDT
232977 black draw true ianh2105 2018-05-06 17:24:35.933355 -0400 EDT
232978 white win true ppzhupapa 2018-05-06 17:24:36.832974 -0400 EDT
232979 black draw true OrbitTheSun 2018-05-06 17:24:36.939069 -0400 EDT
232980 white draw true teddybaer 2018-05-06 17:24:40.20067 -0400 EDT
232981 black draw true mattchess 2018-05-06 17:24:40.309563 -0400 EDT
232982 white - false Flopzee 2018-05-06 17:24:40.407034 -0400 EDT
232983 black win true ImmoHell 2018-05-06 17:24:41.078477 -0400 EDT
232984 white draw true rybot 2018-05-06 17:24:41.313291 -0400 EDT
232985 black - false Bryan_LC0 2018-05-06 17:24:41.979651 -0400 EDT
232986 white win true blin00 2018-05-06 17:24:42.056689 -0400 EDT
232987 black draw true Flavius 2018-05-06 17:24:42.862877 -0400 EDT
232988 white - false intochess 2018-05-06 17:24:43.120169 -0400 EDT
232989 black draw true UWde 2018-05-06 17:24:43.637474 -0400 EDT
232990 white loss true Isla 2018-05-06 17:24:44.184056 -0400 EDT
232991 black win true themadone42 2018-05-06 17:24:44.696501 -0400 EDT
232992 white draw true mghens 2018-05-06 17:24:45.268564 -0400 EDT
232993 black - false some1 2018-05-06 17:24:45.269728 -0400 EDT
232994 white draw true hal9000 2018-05-06 17:24:45.294211 -0400 EDT
232995 black win true y_Sensei 2018-05-06 17:24:45.605803 -0400 EDT
232996 white - false kontrachess 2018-05-06 17:24:45.79119 -0400 EDT
232997 black loss true UglyDuckling 2018-05-06 17:24:45.86677 -0400 EDT
232998 white draw true NoonKnight 2018-05-06 17:24:46.566293 -0400 EDT
232999 black win true probola 2018-05-06 17:24:46.733066 -0400 EDT
233000 white draw true ianh2105 2018-05-06 17:24:46.874423 -0400 EDT
233001 black - false bmac 2018-05-06 17:24:47.139532 -0400 EDT
233002 white draw true mcardillo55 2018-05-06 17:24:47.371263 -0400 EDT
233003 black draw true grondilu 2018-05-06 17:24:48.627358 -0400 EDT
233004 white draw true AySz88 2018-05-06 17:24:49.239702 -0400 EDT
233005 black loss true steve3140 2018-05-06 17:24:50.506201 -0400 EDT
233006 white win true AkariTakai 2018-05-06 17:24:50.607524 -0400 EDT
233007 black draw true mattwhilden 2018-05-06 17:24:50.960248 -0400 EDT
233008 white - false Cyanogenoid 2018-05-06 17:24:53.001888 -0400 EDT
233009 black - false kontrachess 2018-05-06 17:24:53.45679 -0400 EDT
233010 white loss true syjytg 2018-05-06 17:24:53.866546 -0400 EDT
233011 black draw true Slushman 2018-05-06 17:24:53.891828 -0400 EDT
233012 white - false chuckpaulson 2018-05-06 17:24:54.133963 -0400 EDT
233013 black draw true dauec 2018-05-06 17:24:55.402348 -0400 EDT
233014 white - false marcuschho 2018-05-06 17:24:55.762304 -0400 EDT
233015 black draw true Chessie K 2018-05-06 17:24:55.885739 -0400 EDT
233016 white loss true bbghost 2018-05-06 17:24:56.118872 -0400 EDT
233017 black draw true quixote 2018-05-06 17:24:57.608376 -0400 EDT
233018 white loss true MANUCHESS 2018-05-06 17:24:57.946963 -0400 EDT
233019 black win true mistermister 2018-05-06 17:24:58.303006 -0400 EDT
233020 white loss true moliarti 2018-05-06 17:24:59.18586 -0400 EDT
233021 black loss true quixote 2018-05-06 17:24:59.222045 -0400 EDT
233022 white - false fastgm 2018-05-06 17:24:59.90266 -0400 EDT
233023 black - false mattyb 2018-05-06 17:25:00.513373 -0400 EDT
233024 white - false zz4032 2018-05-06 17:25:00.862777 -0400 EDT
233025 black loss true konzy 2018-05-06 17:25:00.923241 -0400 EDT
233026 white - false ArtesMagae 2018-05-06 17:25:01.307836 -0400 EDT
233027 black - false mpigois 2018-05-06 17:25:01.748158 -0400 EDT
233028 white draw true dacebonearm 2018-05-06 17:25:01.78324 -0400 EDT
233029 black - false Cyanogenoid 2018-05-06 17:25:01.827494 -0400 EDT
233030 white - false CJCPD 2018-05-06 17:25:02.12681 -0400 EDT
233031 black win true mikael-s-persson 2018-05-06 17:25:03.844409 -0400 EDT
233032 white loss true Redtarga 2018-05-06 17:25:04.109841 -0400 EDT
233033 black draw true ElmoH59 2018-05-06 17:25:04.148861 -0400 EDT
233034 white - false mop 2018-05-06 17:25:04.276917 -0400 EDT
233035 black loss true atraxazero1 2018-05-06 17:25:04.912663 -0400 EDT
233036 white draw true MrNinjaPilot 2018-05-06 17:25:05.090411 -0400 EDT
233037 black draw true Parbrenic 2018-05-06 17:25:05.092653 -0400 EDT
233038 white loss true teck45 2018-05-06 17:25:05.581118 -0400 EDT
233039 black draw true shwartz01 2018-05-06 17:25:05.9423 -0400 EDT
233040 white draw true syjytg 2018-05-06 17:25:06.946951 -0400 EDT
233041 black loss true hito 2018-05-06 17:25:07.609331 -0400 EDT
233042 white draw true ricksant2003 2018-05-06 17:25:08.401594 -0400 EDT
233043 black - false Cyanogenoid 2018-05-06 17:25:08.826656 -0400 EDT
233044 white draw true Siele 2018-05-06 17:25:09.546989 -0400 EDT
233045 black draw true Dagh 2018-05-06 17:25:09.547259 -0400 EDT
233046 white draw true Google Colab 2018-05-06 17:25:09.876773 -0400 EDT
233047 black draw true JH 2018-05-06 17:25:10.005434 -0400 EDT
233048 white - false Cyanogenoid 2018-05-06 17:25:10.053078 -0400 EDT
233049 black draw true ElmoH59 2018-05-06 17:25:10.087935 -0400 EDT
233050 white - false mpigois 2018-05-06 17:25:10.193653 -0400 EDT
233051 black draw true emurphyt 2018-05-06 17:25:10.447333 -0400 EDT
233052 white win true RageAlone 2018-05-06 17:25:10.989756 -0400 EDT
233053 black win true ezpz 2018-05-06 17:25:11.129902 -0400 EDT
233054 white loss true kontrachess 2018-05-06 17:25:11.377033 -0400 EDT
233055 black draw true shwartz01 2018-05-06 17:25:11.379574 -0400 EDT
233056 white draw true rhdunn 2018-05-06 17:25:11.945741 -0400 EDT
233057 black draw true [email protected] 2018-05-06 17:25:13.955559 -0400 EDT
233058 white loss true y_Sensei 2018-05-06 17:25:14.646057 -0400 EDT
233059 black draw true alonamaloh 2018-05-06 17:25:14.784873 -0400 EDT
233060 white draw true mkh 2018-05-06 17:25:14.927107 -0400 EDT
233061 black draw true MrNinjaPilot 2018-05-06 17:25:14.942365 -0400 EDT
233062 white - false Cyanogenoid 2018-05-06 17:25:15.127345 -0400 EDT
233063 black loss true glitzerpony 2018-05-06 17:25:15.580171 -0400 EDT
233064 white draw true mjlitola 2018-05-06 17:25:15.661044 -0400 EDT
233065 black win true zeycus 2018-05-06 17:25:16.232146 -0400 EDT
233066 white - false Pachnes 2018-05-06 17:25:16.493529 -0400 EDT
233067 black - false edoublel 2018-05-06 17:25:16.790413 -0400 EDT
233068 white draw true ianh2105 2018-05-06 17:25:16.84901 -0400 EDT
233069 black draw true joel 2018-05-06 17:25:17.451792 -0400 EDT
233070 white loss true intochess 2018-05-06 17:25:17.476912 -0400 EDT
233071 black draw true ianh2105 2018-05-06 17:25:17.757743 -0400 EDT
233072 white win true IOExceptional 2018-05-06 17:25:19.751201 -0400 EDT
233073 black loss true Google Colab 2018-05-06 17:25:19.789983 -0400 EDT
233074 white draw true RageAlone 2018-05-06 17:25:20.375277 -0400 EDT
233075 black draw true blin00 2018-05-06 17:25:20.435353 -0400 EDT
233076 white draw true ArtesMagae 2018-05-06 17:25:20.743369 -0400 EDT
233077 black draw true quixote 2018-05-06 17:25:21.485851 -0400 EDT
233078 white draw true Taras 2018-05-06 17:25:21.709704 -0400 EDT
233079 black draw true mfarrill 2018-05-06 17:25:22.459679 -0400 EDT
233080 white draw true Eru 2018-05-06 17:25:22.93923 -0400 EDT
233081 black loss true amannedelk 2018-05-06 17:25:23.121242 -0400 EDT
233082 white - false Cyanogenoid 2018-05-06 17:25:23.523389 -0400 EDT
233083 black loss true bbghost 2018-05-06 17:25:23.86983 -0400 EDT
233084 white draw true blargsoup 2018-05-06 17:25:24.176866 -0400 EDT
233085 black win true GaryS 2018-05-06 17:25:24.324794 -0400 EDT
233086 white win true Wonko42 2018-05-06 17:25:24.345415 -0400 EDT
233087 black loss true RonMcChess 2018-05-06 17:25:24.577093 -0400 EDT
233088 white loss true FrancoisPays 2018-05-06 17:25:25.058547 -0400 EDT
233089 black draw true Temp 2018-05-06 17:25:25.313335 -0400 EDT
233090 white draw true fastgm 2018-05-06 17:25:25.924559 -0400 EDT
233091 black - false killingtime 2018-05-06 17:25:25.981459 -0400 EDT
233092 white draw true rybot 2018-05-06 17:25:26.018062 -0400 EDT
233093 black draw true Galaga 2018-05-06 17:25:26.356374 -0400 EDT
233094 white - false domi 2018-05-06 17:25:26.733913 -0400 EDT
233095 black draw true amicic 2018-05-06 17:25:26.774697 -0400 EDT
233096 white win true Flavius 2018-05-06 17:25:26.956622 -0400 EDT
233097 black loss true quixote 2018-05-06 17:25:27.60636 -0400 EDT
233098 white draw true science 2018-05-06 17:25:28.541585 -0400 EDT
233099 black - false chris_duck 2018-05-06 17:25:29.636688 -0400 EDT
233100 white draw true nepser 2018-05-06 17:25:29.769821 -0400 EDT
233101 black draw true landryb 2018-05-06 17:25:30.0356 -0400 EDT
233102 white draw true KillerDucky 2018-05-06 17:25:30.106863 -0400 EDT
233103 black draw true jolt80 2018-05-06 17:25:30.791704 -0400 EDT
233104 white win true amjsh 2018-05-06 17:25:30.819479 -0400 EDT
233105 black loss true jolt80 2018-05-06 17:25:31.096429 -0400 EDT
233106 white win true j33. 2018-05-06 17:25:31.128253 -0400 EDT
233107 black draw true FrancoisPays 2018-05-06 17:25:31.515961 -0400 EDT
233108 white win true dss 2018-05-06 17:25:31.530586 -0400 EDT
233109 black draw true jnewlin12345 2018-05-06 17:25:31.92043 -0400 EDT
233110 white win true science 2018-05-06 17:25:32.308074 -0400 EDT
233111 black loss true blin00 2018-05-06 17:25:32.610041 -0400 EDT
233112 white draw true blin00 2018-05-06 17:25:32.84659 -0400 EDT
233113 black win true mschmidt 2018-05-06 17:25:33.864517 -0400 EDT
233114 white win true themadone42 2018-05-06 17:25:34.35176 -0400 EDT
233115 black - false kpu3uc 2018-05-06 17:25:35.094176 -0400 EDT
233116 white win true kontrachess 2018-05-06 17:25:35.10733 -0400 EDT
233117 black win true ianh2105 2018-05-06 17:25:35.378926 -0400 EDT
233118 white draw true bmac 2018-05-06 17:25:35.719938 -0400 EDT
233119 black draw true hanan 2018-05-06 17:25:36.892286 -0400 EDT
233120 white loss true NoonKnight 2018-05-06 17:25:36.928633 -0400 EDT
233121 black draw true enricocaruso 2018-05-06 17:25:37.025487 -0400 EDT
233122 white draw true mattwhilden 2018-05-06 17:25:37.619395 -0400 EDT
233123 black loss true atraxazero1 2018-05-06 17:25:37.683944 -0400 EDT
233124 white draw true Eru 2018-05-06 17:25:38.333026 -0400 EDT
233125 black draw true tentacule3 2018-05-06 17:25:38.572957 -0400 EDT
233126 white draw true ianh2105 2018-05-06 17:25:38.656629 -0400 EDT
233127 black draw true mk314 2018-05-06 17:25:38.671782 -0400 EDT
233128 white - false mpigois 2018-05-06 17:25:39.222618 -0400 EDT
233129 black draw true otto 2018-05-06 17:25:39.51293 -0400 EDT
233130 white - false hito 2018-05-06 17:25:40.207872 -0400 EDT
233131 black draw true blin00 2018-05-06 17:25:41.939232 -0400 EDT
233132 white loss true nameBrandon 2018-05-06 17:25:42.305211 -0400 EDT
233133 black win true ElmoH59 2018-05-06 17:25:42.759432 -0400 EDT
233134 white draw true Luis 2018-05-06 17:25:42.805556 -0400 EDT
233135 black - false Assios 2018-05-06 17:25:43.022109 -0400 EDT
233136 white win true bbghost 2018-05-06 17:25:43.024334 -0400 EDT
233137 black loss true terryburton 2018-05-06 17:25:43.731703 -0400 EDT
233138 white win true jorditg 2018-05-06 17:25:43.759582 -0400 EDT
233139 black draw true rachelhikes 2018-05-06 17:25:45.119543 -0400 EDT
233140 white draw true Taras 2018-05-06 17:25:45.687584 -0400 EDT
233141 black loss true amannedelk 2018-05-06 17:25:46.553382 -0400 EDT
233142 white loss true Insertcleverphrasehere 2018-05-06 17:25:46.840729 -0400 EDT
233143 black draw true themadone42 2018-05-06 17:25:47.298301 -0400 EDT
233144 white draw true kwen 2018-05-06 17:25:47.358949 -0400 EDT
233145 black loss true Insertcleverphrasehere 2018-05-06 17:25:48.362441 -0400 EDT
233146 white loss true Cyanogenoid 2018-05-06 17:25:49.020356 -0400 EDT
233147 black win true kram1139 2018-05-06 17:25:51.110926 -0400 EDT
233148 white loss true dss 2018-05-06 17:25:51.468652 -0400 EDT
233149 black win true Redtarga 2018-05-06 17:25:51.538112 -0400 EDT
233150 white draw true NoonKnight 2018-05-06 17:25:51.756808 -0400 EDT
233151 black win true dauec 2018-05-06 17:25:51.765932 -0400 EDT
233152 white win true RICHARDTHULSTRUP 2018-05-06 17:25:51.770991 -0400 EDT
233153 black loss true MANUCHESS 2018-05-06 17:25:51.91085 -0400 EDT
233154 white loss true drefsante 2018-05-06 17:25:52.830422 -0400 EDT
233155 black draw true RageAlone 2018-05-06 17:25:52.896032 -0400 EDT
233156 white loss true Google Colab 2018-05-06 17:25:54.032097 -0400 EDT
233157 black win true dendrobate 2018-05-06 17:25:54.097818 -0400 EDT
233158 white draw true amicic 2018-05-06 17:25:54.177616 -0400 EDT
233159 black draw true mattchess 2018-05-06 17:25:55.612726 -0400 EDT
233160 white draw true Dagh 2018-05-06 17:25:55.705257 -0400 EDT
233161 black win true nicolas-guarin 2018-05-06 17:25:55.750878 -0400 EDT
233162 white draw true mkh 2018-05-06 17:25:55.792884 -0400 EDT
233163 black draw true syjytg 2018-05-06 17:25:56.151864 -0400 EDT
233164 white draw true j33. 2018-05-06 17:25:56.319412 -0400 EDT
233165 black draw true ElmoH59 2018-05-06 17:25:56.849646 -0400 EDT
233166 white draw true RageAlone 2018-05-06 17:25:56.940637 -0400 EDT
233167 black draw true mistermister 2018-05-06 17:25:56.971304 -0400 EDT
233168 white draw true just_stevo 2018-05-06 17:25:57.089425 -0400 EDT
233169 black draw true dacebonearm 2018-05-06 17:25:57.585057 -0400 EDT
233170 white win true hanan 2018-05-06 17:25:57.669916 -0400 EDT
233171 black win true Slushman 2018-05-06 17:25:57.828985 -0400 EDT
233172 white draw true absmachine 2018-05-06 17:25:58.191228 -0400 EDT
233173 black - false xicesky 2018-05-06 17:25:59.336578 -0400 EDT
233174 white draw true marcuschho 2018-05-06 17:25:59.345709 -0400 EDT
233175 black win true leelapartner 2018-05-06 17:25:59.629704 -0400 EDT
233176 white draw true bbghost 2018-05-06 17:25:59.708508 -0400 EDT
233177 black draw true Slushman 2018-05-06 17:25:59.825905 -0400 EDT
233178 white draw true almost_sente 2018-05-06 17:26:00.013518 -0400 EDT
233179 black draw true sillaw 2018-05-06 17:26:00.78801 -0400 EDT
233180 white - false teddybaer 2018-05-06 17:26:01.730718 -0400 EDT
233181 black loss true bbghost 2018-05-06 17:26:02.63325 -0400 EDT
233182 white loss true Balu111 2018-05-06 17:26:02.833441 -0400 EDT
233183 black draw true blin00 2018-05-06 17:26:03.066375 -0400 EDT
233184 white draw true mk314 2018-05-06 17:26:03.152485 -0400 EDT
233185 black draw true ianh2105 2018-05-06 17:26:03.627702 -0400 EDT
233186 white win true Temp 2018-05-06 17:26:03.663108 -0400 EDT
233187 black win true gusti44 2018-05-06 17:26:04.172414 -0400 EDT
233188 white win true just_stevo 2018-05-06 17:26:04.766738 -0400 EDT
233189 black draw true dragan00000 2018-05-06 17:26:05.060177 -0400 EDT
233190 white loss true NimbyDagda 2018-05-06 17:26:05.311479 -0400 EDT
233191 black loss true Galaga 2018-05-06 17:26:05.363674 -0400 EDT
233192 white draw true Isla 2018-05-06 17:26:05.526356 -0400 EDT
233193 black loss true dauec 2018-05-06 17:26:06.003252 -0400 EDT
233194 white loss true y_Sensei 2018-05-06 17:26:06.520689 -0400 EDT
233195 black draw true moliarti 2018-05-06 17:26:07.00783 -0400 EDT
233196 white win true mfarrill 2018-05-06 17:26:07.276918 -0400 EDT
233197 black draw true themadone42 2018-05-06 17:26:07.708944 -0400 EDT
233198 white draw true otto 2018-05-06 17:26:08.806921 -0400 EDT
233199 black draw true ianh2105 2018-05-06 17:26:09.09424 -0400 EDT
233200 white loss true dew 2018-05-06 17:26:09.861805 -0400 EDT
233201 black loss true domi 2018-05-06 17:26:09.912889 -0400 EDT
233202 white draw true AkariTakai 2018-05-06 17:26:10.728354 -0400 EDT
233203 black loss true bmac 2018-05-06 17:26:10.73519 -0400 EDT
233204 white loss true mistermister 2018-05-06 17:26:10.813879 -0400 EDT
233205 black draw true dss 2018-05-06 17:26:11.069622 -0400 EDT
233206 white - false Flopzee 2018-05-06 17:26:11.110818 -0400 EDT
233207 black draw true UglyDuckling 2018-05-06 17:26:12.1789 -0400 EDT
233208 white loss true mattyb 2018-05-06 17:26:12.96049 -0400 EDT
233209 black loss true kram1139 2018-05-06 17:26:13.167693 -0400 EDT
233210 white win true intochess 2018-05-06 17:26:13.536788 -0400 EDT
233211 black draw true Wonko42 2018-05-06 17:26:13.644676 -0400 EDT
233212 white draw true lliu355 2018-05-06 17:26:14.197832 -0400 EDT
233213 black win true FrancoisPays 2018-05-06 17:26:14.906377 -0400 EDT
233214 white win true amjsh 2018-05-06 17:26:15.106355 -0400 EDT
233215 black draw true jason2 2018-05-06 17:26:15.191583 -0400 EDT
233216 white draw true mjlitola 2018-05-06 17:26:15.785435 -0400 EDT
233217 black draw true kontrachess 2018-05-06 17:26:16.129903 -0400 EDT
233218 white win true ianh2105 2018-05-06 17:26:16.142299 -0400 EDT
233219 black draw true landryb 2018-05-06 17:26:16.496484 -0400 EDT
233220 white - false wizhoger 2018-05-06 17:26:17.104863 -0400 EDT
233221 black draw true joel 2018-05-06 17:26:17.310786 -0400 EDT
233222 white win true Masterplan 2018-05-06 17:26:19.099867 -0400 EDT
233223 black draw true mcardillo55 2018-05-06 17:26:19.376117 -0400 EDT
233224 white draw true Insertcleverphrasehere 2018-05-06 17:26:19.488401 -0400 EDT
233225 black draw true mistermister 2018-05-06 17:26:19.936097 -0400 EDT
233226 white draw true ryanschroer 2018-05-06 17:26:20.119915 -0400 EDT
233227 black draw true dss 2018-05-06 17:26:20.235809 -0400 EDT
233228 white draw true bbghost 2018-05-06 17:26:20.254604 -0400 EDT
233229 black draw true nepser 2018-05-06 17:26:20.463207 -0400 EDT
233230 white - false iwontupload 2018-05-06 17:26:20.89176 -0400 EDT
233231 black draw true AySz88 2018-05-06 17:26:21.194925 -0400 EDT
233232 white draw true Google Colab 2018-05-06 17:26:21.419026 -0400 EDT
233233 black loss true knightgrinder 2018-05-06 17:26:22.32095 -0400 EDT
233234 white win true blin00 2018-05-06 17:26:22.731126 -0400 EDT
233235 black loss true ianh2105 2018-05-06 17:26:22.745991 -0400 EDT
233236 white win true bbghost 2018-05-06 17:26:22.844434 -0400 EDT
233237 black loss true Cyanogenoid 2018-05-06 17:26:23.27806 -0400 EDT
233238 white draw true MrElk 2018-05-06 17:26:23.707193 -0400 EDT
233239 black draw true mattwhilden 2018-05-06 17:26:23.919896 -0400 EDT
233240 white loss true rulamann_new 2018-05-06 17:26:24.137927 -0400 EDT
233241 black draw true alonamaloh 2018-05-06 17:26:25.041897 -0400 EDT
233242 white draw true TCECfan 2018-05-06 17:26:25.270324 -0400 EDT
233243 black draw true marcuschho 2018-05-06 17:26:25.905701 -0400 EDT
233244 white win true rebootl 2018-05-06 17:26:26.040295 -0400 EDT
233245 black draw true amicic 2018-05-06 17:26:26.253484 -0400 EDT
233246 white loss true dmir 2018-05-06 17:26:26.307821 -0400 EDT
233247 black draw true Chakravartim 2018-05-06 17:26:26.428848 -0400 EDT
233248 white loss true mfarrill 2018-05-06 17:26:26.851253 -0400 EDT
233249 black draw true aggg63 2018-05-06 17:26:26.984952 -0400 EDT
233250 white draw true hal9000 2018-05-06 17:26:27.295713 -0400 EDT
233251 black - false Deathwolf 2018-05-06 17:26:27.549166 -0400 EDT
233252 white loss true RonMcChess 2018-05-06 17:26:27.795896 -0400 EDT